Paynesville, MN

3:15 PM CDT on July 23, 2017 (GMT -0500)
Paynesville

Weather History for KPEX - October, 2013

Change the Weather History Date:

Saturday, October 5, 2013

  Actual Average (KLJF) Record (KLJF)
Temperature  
Mean Temperature 48 °F -  
Max Temperature 55 °F 66 °F 88 °F (1963)
Min Temperature 40 °F 41 °F 21 °F (1952)
Degree Days  
Heating Degree Days 18    
Moisture  
Dew Point 46 °F    
Average Humidity 86    
Maximum Humidity 99    
Minimum Humidity 62    
Precipitation  
Precipitation 0.04 in - - ()
Sea Level Pressure  
Sea Level Pressure 29.79 in    
Wind  
Wind Speed 8 mph (ESE)    
Max Wind Speed 16 mph    
Max Gust Speed 26 mph    
Visibility 7 miles    
Events Rain , Thunderstorm    
Averages and records for this station are not official NWS values.
T = Trace of Precipitation, MM = Missing Value Source: NWS Daily Summary

Daily Weather History Graph

Daily Weather History Graph

Search for Another Location

Airport or City:

Trip Planner

Search our weather history database for the weather conditions in past years. The results will help you decide how hot, cold, wet, or windy it might be!

Date:

Astronomy

Oct. 05, 2013 Rise Set
Actual Time 7:22 AM CDT 6:51 PM CDT
Civil Twilight 6:53 AM CDT 7:20 PM CDT
Nautical Twilight 6:18 AM CDT 7:54 PM CDT
Astronomical Twilight 5:44 AM CDT 8:29 PM CDT
Moon 8:06 AM CDT (10/5) 7:06 PM CDT (10/5)
Length of Visible Light 12h 27m
Length of Day
11h 28m
New Moon, 1% of the Moon is Illuminated
Oct 5
New Moon
Oct 11
First Quarter
Oct 18
Full
Oct 26
Last Quarter
Nov 3
New

Hourly Weather History & Observations

Time (CDT) Temp. Dew Point Humidity Pressure Visibility Wind Dir Wind Speed Gust Speed Precip Events Conditions
12:12 AM 53.1 °F 52.0 °F 96% 29.83 in 5.0 mi ENE 11.5 mph 26.5 mph N/A Rain , Thunderstorm Light Thunderstorms and Rain
12:33 AM 53.1 °F 52.0 °F 96% 29.82 in 7.0 mi ENE 11.5 mph 23.0 mph N/A Rain , Thunderstorm Heavy Thunderstorms and Rain
12:53 AM 53.2 °F 52.0 °F 95% 29.81 in 7.0 mi ENE 16.1 mph 23.0 mph N/A Rain Heavy Rain
1:13 AM 53.4 °F 52.0 °F 95% 29.81 in 7.0 mi ENE 8.1 mph 19.6 mph N/A Rain Heavy Rain
1:32 AM 53.6 °F 52.0 °F 94% 29.81 in 10.0 mi ENE 11.5 mph 18.4 mph N/A Rain Heavy Rain
1:53 AM 53.8 °F 52.3 °F 95% 29.80 in 7.0 mi ENE 12.7 mph 18.4 mph N/A Rain Heavy Rain
2:13 AM 53.8 °F 52.3 °F 95% 29.81 in 7.0 mi ENE 15.0 mph 21.9 mph N/A Rain Heavy Rain
2:33 AM 53.8 °F 52.7 °F 96% 29.81 in 5.0 mi East 10.4 mph 19.6 mph N/A Rain Light Rain
2:52 AM 53.8 °F 52.7 °F 96% 29.79 in 3.0 mi ENE 11.5 mph 18.4 mph N/A Rain Light Rain
3:13 AM 53.6 °F 52.7 °F 97% 29.79 in 2.5 mi ENE 8.1 mph 18.4 mph N/A Rain Light Rain
3:32 AM 53.6 °F 52.9 °F 97% 29.79 in 2.0 mi ENE 9.2 mph 19.6 mph N/A Rain Light Rain
6:04 AM 53.6 °F 52.9 °F 97% 29.76 in 2.0 mi East 16.1 mph 21.9 mph 0.01 in Rain Light Rain
6:12 AM 53.4 °F 52.9 °F 98% 29.76 in 2.0 mi ENE 13.8 mph 23.0 mph 0.01 in Rain Light Rain
6:33 AM 53.6 °F 52.9 °F 97% 29.77 in 2.0 mi East 11.5 mph 18.4 mph 0.01 in Rain Light Rain
6:53 AM 53.6 °F 53.1 °F 98% 29.77 in 2.0 mi ENE 11.5 mph 19.6 mph 0.01 in Rain Light Rain
7:12 AM 53.6 °F 52.9 °F 97% 29.77 in 2.0 mi East 6.9 mph - N/A Rain Light Rain
7:33 AM 53.6 °F 52.9 °F 97% 29.78 in 4.0 mi East 6.9 mph - N/A Rain Light Rain
7:53 AM 53.6 °F 53.1 °F 98% 29.78 in 3.0 mi SE 6.9 mph - N/A Rain Rain
8:13 AM 50.2 °F 49.5 °F 97% 29.80 in 5.0 mi SSW 6.9 mph - N/A Rain Light Rain
8:32 AM 48.6 °F 47.5 °F 96% 29.80 in 7.0 mi SW 5.8 mph - N/A Rain Light Rain
8:53 AM 48.2 °F 46.8 °F 95% 29.81 in 7.0 mi SSW 6.9 mph - N/A Rain Heavy Rain
9:13 AM 48.2 °F 45.9 °F 92% 29.81 in 7.0 mi South 3.5 mph - N/A Rain Heavy Rain
9:33 AM 47.7 °F 45.7 °F 93% 29.82 in 7.0 mi South 8.1 mph - N/A Rain Heavy Rain
9:52 AM 47.3 °F 45.5 °F 93% 29.82 in 5.0 mi SE 6.9 mph - N/A Rain Heavy Rain
10:12 AM 47.3 °F 45.0 °F 92% 29.81 in 7.0 mi SE 6.9 mph - N/A Rain Heavy Rain
10:33 AM 48.9 °F 45.0 °F 86% 29.81 in 7.0 mi South 6.9 mph - N/A Rain Heavy Rain
10:53 AM 48.4 °F 43.0 °F 82% 29.81 in 7.0 mi SE 5.8 mph - N/A Rain Heavy Rain
11:13 AM 49.8 °F 42.1 °F 75% 29.82 in 10.0 mi SE 6.9 mph - N/A Rain Heavy Rain
11:32 AM 50.2 °F 42.1 °F 74% 29.81 in 7.0 mi ESE 9.2 mph - N/A Rain Heavy Rain
11:53 AM 52.2 °F 43.5 °F 72% 29.80 in 7.0 mi ESE 10.4 mph - 0.02 in Rain Heavy Rain
12:13 PM 52.7 °F 43.7 °F 71% 29.80 in 7.0 mi East 11.5 mph - N/A Rain Heavy Rain
12:33 PM 54.5 °F 43.9 °F 67% 29.78 in 10.0 mi ESE 10.4 mph - N/A Rain Heavy Rain
12:52 PM 55.0 °F 44.2 °F 67% 29.78 in 10.0 mi East 11.5 mph - N/A Rain Heavy Rain
1:13 PM 54.9 °F 42.3 °F 63% 29.77 in 7.0 mi SE 10.4 mph - N/A Rain Heavy Rain
1:33 PM 54.5 °F 42.3 °F 63% 29.78 in 7.0 mi SE 9.2 mph - N/A Rain Heavy Rain
1:52 PM 53.8 °F 41.0 °F 62% 29.78 in 7.0 mi SE 10.4 mph - N/A Rain Heavy Rain
2:13 PM 54.0 °F 41.2 °F 62% 29.77 in 7.0 mi SE 5.8 mph - N/A Rain Heavy Rain
2:33 PM 52.7 °F 41.7 °F 66% 29.78 in 7.0 mi SSW 5.8 mph - N/A Rain Heavy Rain
2:52 PM 52.2 °F 41.2 °F 66% 29.77 in 10.0 mi SE 5.8 mph - N/A Rain Heavy Rain
3:13 PM 52.3 °F 41.7 °F 67% 29.76 in 7.0 mi SSE 3.5 mph - N/A Rain Heavy Rain
3:33 PM 51.6 °F 41.4 °F 68% 29.77 in 7.0 mi South 5.8 mph - N/A Rain Rain
3:52 PM 50.5 °F 42.1 °F 73% 29.77 in 7.0 mi SSW 6.9 mph - N/A Rain Heavy Rain
4:13 PM 50.0 °F 40.3 °F 69% 29.78 in 7.0 mi SSE 3.5 mph - N/A Rain Heavy Rain
4:33 PM 50.0 °F 40.1 °F 69% 29.77 in 7.0 mi SSE 5.8 mph - N/A Rain Heavy Rain
4:53 PM 50.0 °F 40.1 °F 69% 29.79 in 7.0 mi Calm Calm - N/A Rain Heavy Rain
5:12 PM 50.0 °F 39.9 °F 68% 29.78 in 7.0 mi Calm Calm - N/A Rain Heavy Rain
5:33 PM 49.6 °F 40.1 °F 70% 29.77 in 7.0 mi Calm Calm - N/A Rain Heavy Rain
5:53 PM 49.3 °F 41.2 °F 74% 29.79 in 5.0 mi SSE 5.8 mph - N/A Rain Heavy Rain
6:12 PM 48.9 °F 41.7 °F 76% 29.79 in 10.0 mi SE 4.6 mph - N/A Rain Rain
6:33 PM 47.7 °F 43.2 °F 84% 29.77 in 7.0 mi East 3.5 mph - 0.01 in Rain Light Rain
6:52 PM 47.3 °F 43.9 °F 88% 29.77 in 7.0 mi Calm Calm - 0.01 in   Unknown
7:13 PM 46.8 °F 44.6 °F 92% 29.77 in 7.0 mi Calm Calm - N/A   Unknown
7:33 PM 46.2 °F 44.4 °F 93% 29.77 in 7.0 mi Calm Calm - N/A   Unknown
7:52 PM 46.0 °F 44.4 °F 94% 29.77 in 7.0 mi Calm Calm - N/A   Unknown
8:13 PM 45.5 °F 44.1 °F 95% 29.77 in 7.0 mi Calm Calm - N/A   Unknown
8:33 PM 44.6 °F 43.5 °F 96% 29.78 in 7.0 mi Calm Calm - N/A   Unknown
8:53 PM 43.2 °F 41.9 °F 95% 29.78 in 7.0 mi Calm Calm - N/A   Unknown
9:12 PM 42.8 °F 42.1 °F 97% 29.79 in 10.0 mi Calm Calm - N/A   Unknown
9:32 PM 42.8 °F 42.1 °F 97% 29.78 in 10.0 mi Calm Calm - N/A   Scattered Clouds
9:53 PM 43.7 °F 43.0 °F 97% 29.78 in 10.0 mi Calm Calm - N/A   Mostly Cloudy
10:13 PM 43.5 °F 42.6 °F 97% 29.78 in 10.0 mi Calm Calm - N/A   Scattered Clouds
10:32 PM 42.4 °F 41.4 °F 96% 29.78 in 10.0 mi Calm Calm - N/A   Clear
10:52 PM 40.5 °F 39.6 °F 97% 29.78 in 10.0 mi Calm Calm - N/A   Unknown
11:13 PM 41.0 °F 40.1 °F 97% 29.78 in 10.0 mi Calm Calm - N/A   Unknown
11:33 PM 42.1 °F 41.7 °F 99% 29.77 in 10.0 mi Calm Calm - N/A   Overcast
11:53 PM 43.2 °F 42.8 °F 99% 29.77 in 10.0 mi Calm Calm - N/A   Overcast